This demonstration page uses our WeatherBlox Daily Observations layout. Learn more.

Left ArrowRight Arrow

Hourly Observations for April 8, 2021

Temp ( °F °C ) Dew Point ( °F °C ) Humidity (%) Winds ( mph kmh ) Pressure ( in mb ) Visibility ( mi km ) Precip ( " mm )
12:15 am 00:15 Cloudy 64 18 46 8 52 52 ESE 8 13 29.97 1015 10 16.0934 0 0
12:35 am 00:35 Mostly Cloudy 64 18 45 7 49 49 ESE 8 13 29.97 1015 10 16.0934 0 0
12:55 am 00:55 Cloudy 64 18 43 6 46 46 ESE 8 13 29.99 1016 10 16.0934 0 0
1:15 am 01:15 Mostly Cloudy 63 17 43 6 49 49 ESE 5 7 30 1016 10 16.0934 0 0
1:35 am 01:35 Mostly Cloudy 63 17 41 5 45 45 SE 6 9 30.01 1016 10 16.0934 0 0
1:55 am 01:55 Cloudy 63 17 41 5 45 45 Calm 30.02 1016 10 16.0934 0 0
2:15 am 02:15 Cloudy 61 16 43 6 52 52 ESE 7 11 30.02 1016 10 16.0934 0 0
2:35 am 02:35 Cloudy 61 16 39 4 45 45 SE 7 11 30.02 1016 10 16.0934 0 0
2:55 am 02:55 Cloudy 61 16 36 2 39 39 SE 6 9 30.02 1016 10 16.0934 0 0
3:15 am 03:15 Cloudy 61 16 36 2 39 39 Calm 30.03 1017 10 16.0934 0 0
3:35 am 03:35 Mostly Cloudy 61 16 36 2 39 39 SE 5 7 30.03 1017 10 16.0934 0 0
3:55 am 03:55 Partly Cloudy 61 16 34 1 36 36 S 5 7 30.03 1017 10 16.0934 0 0
4:15 am 04:15 Partly Cloudy 61 16 32 0 34 34 SSE 6 9 30.02 1016 10 16.0934 0 0
4:35 am 04:35 Partly Cloudy 61 16 32 0 34 34 SSE 6 9 30.02 1016 10 16.0934 0 0
4:55 am 04:55 Clear 59 15 32 0 36 36 Calm 30.03 1017 10 16.0934 0 0
5:15 am 05:15 Partly Cloudy 59 15 32 0 36 36 SE 3 6 30.04 1017 10 16.0934 0 0
5:35 am 05:35 Partly Cloudy 59 15 32 0 36 36 SE 6 9 30.04 1017 10 16.0934 0 0
5:55 am 05:55 Clear 57 14 34 1 41 41 ESE 3 6 30.05 1018 10 16.0934 0 0
6:15 am 06:15 Mostly Cloudy 57 14 34 1 41 41 SE 3 6 30.05 1018 10 16.0934 0 0
6:35 am 06:35 Cloudy 55 13 34 1 44 44 SE 3 6 30.06 1018 10 16.0934 0 0
6:55 am 06:55 Mostly Cloudy 55 13 34 1 44 44 Calm 30.07 1018 10 16.0934 0 0
7:15 am 07:15 Cloudy 55 13 34 1 44 44 ESE 5 7 30.08 1019 10 16.0934 0 0
7:35 am 07:35 Mostly Cloudy 55 13 36 2 47 47 E 5 7 30.08 1019 7 11.26538 0 0
7:55 am 07:55 Partly Cloudy 55 13 37 3 51 51 E 6 9 30.09 1019 10 16.0934 0 0
8:15 am 08:15 Sunny 55 13 41 5 59 59 E 6 9 30.09 1019 10 16.0934 0 0
8:35 am 08:35 Sunny 55 13 41 5 59 59 ESE 6 9 30.1 1019 10 16.0934 0 0
8:55 am 08:55 Sunny 57 14 43 6 59 59 SE 6 9 30.09 1019 10 16.0934 0 0
9:15 am 09:15 Sunny 59 15 43 6 55 55 ESE 5 7 30.09 1019 10 16.0934 0 0
9:35 am 09:35 Sunny 59 15 43 6 55 55 SE 10 17 30.09 1019 10 16.0934 0 0
9:55 am 09:55 Mostly Cloudy 61 16 43 6 52 52 SE 7 11 30.09 1019 10 16.0934 0 0
10:15 am 10:15 Cloudy 61 16 43 6 52 52 SSE 8 13 30.1 1019 10 16.0934 0 0
10:35 am 10:35 Cloudy 63 17 43 6 49 49 ESE 9 15 30.1 1019 10 16.0934 0 0
10:55 am 10:55 Partly Cloudy 63 17 43 6 49 49 ESE 12 19 30.09 1019 10 16.0934 0 0
11:15 am 11:15 Mostly Cloudy 64 18 43 6 46 46 ESE 9 15 30.08 1019 10 16.0934 0 0
11:35 am 11:35 Partly Cloudy 64 18 43 6 46 46 SE 7 11 30.08 1019 10 16.0934 0 0
11:55 am 11:55 Partly Cloudy 64 18 43 6 46 46 SE 9 15 30.08 1019 10 16.0934 0 0
12:15 pm 12:15 Partly Cloudy 68 20 45 7 43 43 SE 10 17 30.07 1018 10 16.0934 0 0
12:35 pm 12:35 Sunny 68 20 43 6 40 40 SSE 14 22 30.07 1018 10 16.0934 0 0
12:55 pm 12:55 Sunny 70 21 45 7 40 40 SSE 8 13 30.05 1018 10 16.0934 0 0
1:15 pm 13:15 Sunny 68 20 45 7 43 43 SE 9 15 30.04 1017 10 16.0934 0 0
1:35 pm 13:35 Partly Cloudy 70 21 45 7 40 40 S 10 17 30.04 1017 10 16.0934 0 0
1:55 pm 13:55 Mostly Cloudy 70 21 45 7 40 40 SSE 14 22 30.03 1017 10 16.0934 0 0
2:15 pm 14:15 Mostly Cloudy 70 21 45 7 40 40 SSE 13 20 30.03 1017 10 16.0934 0 0
2:35 pm 14:35 Cloudy 70 21 45 7 40 40 SE 12 19 30.02 1017 10 16.0934 0 0
2:55 pm 14:55 Mostly Cloudy 70 21 45 7 40 40 SSE 9 15 30.01 1016 10 16.0934 0 0
3:15 pm 15:15 Mostly Cloudy 70 21 45 7 40 40 SSE 10 17 30.01 1016 10 16.0934 0 0
3:35 pm 15:35 Mostly Cloudy 72 22 46 8 41 41 S 16 26 29.99 1016 10 16.0934 0 0
3:55 pm 15:55 Partly Cloudy 72 22 46 8 41 41 S 12 19 29.99 1016 10 16.0934 0 0
4:15 pm 16:15 Sunny 72 22 46 8 41 41 S 16 26 29.99 1016 10 16.0934 0 0
4:35 pm 16:35 Partly Cloudy 72 22 46 8 41 41 S 15 24 29.99 1016 10 16.0934 0 0
4:55 pm 16:55 Partly Cloudy 72 22 46 8 41 41 S 16 26 29.99 1016 10 16.0934 0 0
5:15 pm 17:15 Sunny 70 21 45 7 40 40 S 16 26 29.99 1016 10 16.0934 0 0
5:35 pm 17:35 Sunny 70 21 45 7 40 40 S 17 28 29.99 1016 10 16.0934 0 0
5:55 pm 17:55 Sunny 70 21 45 7 40 40 S 20 31 29.99 1016 10 16.0934 0 0
6:15 pm 18:15 Sunny 70 21 45 7 40 40 SSE 13 20 29.99 1016 10 16.0934 0 0
6:35 pm 18:35 Sunny 68 20 45 7 43 43 S 17 28 30 1016 10 16.0934 0 0
6:55 pm 18:55 Sunny 68 20 45 7 43 43 S 10 17 30.01 1016 10 16.0934 0 0
7:15 pm 19:15 Sunny 66 19 45 7 46 46 S 16 26 30 1016 10 16.0934 0 0
7:35 pm 19:35 Sunny 64 18 45 7 49 49 SSE 13 20 30.01 1016 10 16.0934 0 0
7:55 pm 19:55 Clear 64 18 45 7 49 49 SSE 13 20 30.01 1016 10 16.0934 0 0
8:15 pm 20:15 Clear 64 18 45 7 49 49 SSE 12 19 30.01 1016 10 16.0934 0 0
8:35 pm 20:35 Clear 63 17 45 7 52 52 SSE 9 15 30.03 1017 10 16.0934 0 0
8:55 pm 20:55 Clear 63 17 46 8 56 56 SE 10 17 30.04 1017 10 16.0934 0 0
9:15 pm 21:15 Clear 63 17 46 8 56 56 SSE 7 11 30.05 1017 10 16.0934 0 0
9:35 pm 21:35 Clear 61 16 46 8 59 59 SE 12 19 30.05 1018 10 16.0934 0 0
9:55 pm 21:55 Partly Cloudy 61 16 46 8 59 59 SSE 10 17 30.05 1018 10 16.0934 0 0
10:15 pm 22:15 Partly Cloudy 61 16 46 8 59 59 SE 9 15 30.05 1018 10 16.0934 0 0
10:35 pm 22:35 Partly Cloudy 61 16 45 7 55 55 SSE 12 19 30.05 1018 10 16.0934 0 0
10:55 pm 22:55 Partly Cloudy 59 15 45 7 59 59 SSE 9 15 30.05 1018 10 16.0934 0 0
11:15 pm 23:15 Clear 59 15 45 7 59 59 SE 7 11 30.05 1018 10 16.0934 0 0
11:35 pm 23:35 Partly Cloudy 59 15 45 7 59 59 SE 12 19 30.05 1018 10 16.0934 0 0
11:55 pm 23:55 Mostly Cloudy 59 15 46 8 63 63 SE 8 13 30.06 1018 10 16.0934 0 0

Powered by AerisWeather